Terminal Aerodrome Forecast
Issued by NWS Charleston, WV

Current Version | Previous Version | Text Only | Print | Product List | Glossary Off
Versions: 1 2 3 4 5 6 7 8 9 10 11 12 13 14 15 16 17 18 19 20 21 22 23 24 25

000
FTUS41 KRLX 301200 AAA
TAFBKW
TAF AMD
KBKW 301243Z 3013/0112 27004KT 4SM BR SCT002
     FM301400 28006KT P6SM FEW005
     FM302200 31005KT P6SM FEW045
     FM010800 VRB03KT 6SM BR BKN040=

USA.gov is the U.S. government's official web portal to all federal, state and local government web resources and services.